Other Public Products
Issued by NWS Grand Forks, ND

Home | Current Version | Previous Version | Graphics & Text | Print | Product List | Glossary On
Versions: 1 2 3 4 5 6 7 8 9 10 11 12 13 14 15 16 17 18 19 20 21 22 23 24 25 26 27 28 29 30 31 32 33 34 35 36 37 38 39 40 41 42 43 44 45 46 47 48 49 50
034
FPUS83 KFGF 190131
OPUFGF
PRAIRIE TO PINES WEATHER ROUNDUP
NATIONAL WEATHER SERVICE EASTERN NORTH DAKOTA/GRAND FORKS ND
700 PM CST WED JAN 18 2017

 **SATELLITE DATA USED TO AUGMENT SKY COVER AT AUTOMATED STATIONS**
 *****  WEATHER ACROSS EASTERN NORTH DAKOTA  *****

CITY           SKY/WX    TMP DP  RH WIND       PRES   REMARKS
GRAND FORKS    FAIR      29  22  75 S12       29.67S WCI  19
GRAND FORKS AF FAIR      27  23  84 S8        29.66F WCI  19
GRAND CITY NWS NOT AVBL
BUXTON           N/A     27  25  90 S12         N/A  WCI  17
DEVILS LAKE    FAIR      28  25  88 SE6       29.61F WCI  22
FARGO          FAIR      34  27  75 S12       29.71F
WAHPETON ARPT  FAIR      30  27  86 SE8       29.74S WCI  23
$$

 *****  WEATHER ACROSS CENTRAL AND WESTERN NORTH DAKOTA  *****

CITY           SKY/WX    TMP DP  RH WIND       PRES   REMARKS
JAMESTOWN      FAIR      27  25  92 S6        29.65S WCI  20
BISMARCK       FAIR      27  22  81 CALM      29.65F
MINOT          FAIR      39  28  64 S15       29.55S
MINOT AFB      FAIR      38  28  67 NE7       29.54R
GARRISON         N/A     29  24  82 CALM      29.59S
WILLISTON      FAIR      33  26  75 CALM      29.56F
DICKINSON      FAIR      35  26  69 S14       29.58F
HETTINGER      FAIR      25  19  78 NW10      29.64S WCI  15
$$

 *****  OTHER OBSERVATIONS NORTHEAST NORTH DAKOTA  *****

CITY           SKY/WX    TMP DP  RH WIND       PRES   REMARKS
WALHALLA       NOT AVBL
LANGDON        NOT AVBL
CAVALIER         N/A     28  25  86 SE8       29.62S WCI  20
GRAFTON        FAIR      27  23  86 S14       29.67S WCI  15
CANDO          NOT AVBL
FORT TOTTEN      N/A     36  25  65 SE5       29.95S
ROLLA            N/A    N/A N/A N/A MISG        N/A
RUGBY            N/A     32  25  74 S7        29.58S
 ***** THE ABOVE OBSERVATIONS ARE NON NWS ARE NOT QUALITY
        CONTROLLED AND MAY MIS-REPORT RAIN FOR SNOW...
$$

 *****  OTHER OBSERVATIONS SOUTHEAST NORTH DAKOTA *****

CITY           SKY/WX    TMP DP  RH WIND       PRES   REMARKS
COOPERSTOWN    FAIR      28  25  86 S12       29.65F WCI  18
VALLEY CITY    FAIR      27  27 100 S9        29.69S WCI  17
OAKES          NOT AVBL
GWINNER        FAIR      32  28  86 SW16      29.70F WCI  21
SHEYENNE NWR     N/A     30  23  76 S7        29.95S WCI  23
BUFFALO          N/A     29  20  70 SE9         N/A  WCI  21
WYNDMERE         N/A     27  25  93 SE5         N/A  WCI  21
 ***** THE ABOVE OBSERVATIONS ARE NON NWS ARE NOT QUALITY
       CONTROLLED AND MAY MIS-REPORT RAIN FOR SNOW...
$$

  *****  WEATHER ACROSS NORTHERN MINNESOTA  *****

CITY           SKY/WX    TMP DP  RH WIND       PRES   REMARKS
FLAG ISLAND    FAIR      25  19  80 SE13      29.67F WCI  13
WARROAD        FAIR      25  19  80 SE5       29.69S WCI  19
ROSEAU         FAIR      27  21  80 S7        29.68S WCI  19
HALLOCK        FAIR      25  21  86 S17       29.65F WCI  11
THF RVR FALLS  FAIR      27  22  81 S13       29.70F WCI  16
HALSTAD          N/A     27  23  85 S14         N/A  WCI  16
FOSSTON        FAIR      27  19  74 S7        29.72S WCI  19
BAUDETTE       FAIR      27  20  75 SE5       29.69S WCI  22
WASKISH        FAIR      30  27  86 CALM      29.72S
CROOKSTON      FAIR      28  25  86 S17       29.70S WCI  16
$$
  *****  WEATHER ACROSS CENTRAL AND WEST MINNESOTA  *****

CITY           SKY/WX    TMP DP  RH WIND       PRES   REMARKS
BEMIDJI        FAIR      35  25  66 S8        29.73S
PARK RAPIDS    FAIR      33  22  63 S8        29.74S
WADENA         FAIR      28  23  80 SE5       29.75S WCI  23
DETROIT LAKES  FAIR      34  27  75 S8        29.74F
MOORHEAD       FAIR      28  25  86 SE9       29.73F WCI  20
FERGUS FALLS   FAIR      32  27  80 SE9       29.79S WCI  24
ELBOW LAKE     FAIR      31  27  84 E10       29.75S FOG     WCI  23
MORRIS MN      FAIR      30  28  93 SE12      29.75S WCI  21
STAPLES        FAIR      28  25  86 CALM      29.77S
WHEATON        FAIR      37  34  87 SE12      29.76R
$$
  *****  WEATHER ELSEWHERE ACROSS MINNESOTA  *****

CITY           SKY/WX    TMP DP  RH WIND       PRES   REMARKS
DULUTH         FAIR      35  26  69 SW7       29.79S
INTRNTL FALLS  FAIR      27  22  81 SE5       29.73R WCI  22
ELY            FAIR      25  21  86 SE3       29.76S
CLOQUET        FAIR      34  25  69 S5        29.80S
BRAINERD       FAIR      31  26  82 S5        29.78F
HIBBING        FAIR      33  24  69 S5        29.77S
ALEXANDRIA     FAIR      30  25  81 SE8       29.77S WCI  22
SAINT CLOUD    FAIR      31  29  92 S10       29.82S WCI  22
MINNEAPOLIS    FAIR      34  30  85 SE6       29.86S
$$

  *****  WEATHER ACROSS SOUTH DAKOTA  *****

CITY           SKY/WX    TMP DP  RH WIND       PRES   REMARKS
SIOUX FALLS    FAIR      41  38  89 S12       29.79F
BROOKINGS      FAIR      34  32  92 S13       29.75F WCI  25
WATERTOWN      FAIR      30  27  88 SE9       29.74F WCI  22
HURON          FAIR      33  31  92 SE9       29.71F
SISSETON         N/A     32  28  85 S6        29.72R
ABERDEEN       FAIR      25  20  81 S10       29.72F WCI  15
MITCHELL       FAIR      39  35  86 SE10      29.74S
PIERRE         FAIR      22  18  85 NE6       29.68S WCI  14
MOBRIDGE       FAIR      24  17  74 SE8       29.65R WCI  15
RAPID CITY     FAIR      28  22  78 CALM      29.61F
$$

  *****  SOME WEATHER IN NEARBY STATES *****

CITY           SKY/WX    TMP DP  RH WIND       PRES   REMARKS
GLASGOW MT     FAIR      32  26  78 E10       29.51F WCI  24
GREAT FALLS MT FAIR      41  28  60 SW14      29.53R
CHEYENNE WY    FAIR      38  17  42 CALM      29.76S
SCOTTSBLUFF NE FAIR      38  26  62 CALM      29.72S
OMAHA NE       FAIR      44  36  73 S12       29.90S
DES MOINES IA  FAIR      37  33  85 S13       29.98R
DAVENPORT IA   FAIR      34  32  92 S8        30.06S
CHICAGO IL     CLOUDY    35  32  88 SW10G17   30.07F
EAU CLAIRE WI  FAIR      32  29  88 S8        29.89S WCI  25
LA CROSSE WI   MOCLDY    35  31  85 S9        29.97R
$$

  *****  SOME NATIONAL WEATHER *****

CITY           SKY/WX    TMP DP  RH WIND       PRES   REMARKS
LA GUARDIA NY  CLOUDY    42  37  82 N7        30.03F
RALEIGH NC     FAIR      53  35  50 NE3       30.04R
ATLANTA GA     FAIR      63  51  65 W6        30.10R
NEW ORLEANS LA CLOUDY    71  69  93 SE9       30.05S
OKLAHOMA CITY  CLOUDY    50  44  80 S8        29.96R
ALBUQUERQUE NM MOCLDY    46  34  62 N3        30.00R
SALT LAKE CITY MOCLDY    24  21  88 N13       29.97F FOG     WCI  12
LOS ANGELES CA CLOUDY    57  47  69 W15       30.12F
BOISE ID       FRZ RAIN  32  30  92 S16       29.77F WCI  21
SEATTLE WA     LGT RAIN  47  43  86 E14       29.28F
$$

*** WEATHER ACROSS MANITOBA...SASKATCHEWAN AND ONTARIO ***
                ***ONTARIO***

CITY           SKY/WX    TMP DP  RH WIND       PRES   REMARKS
GERALDTON      CLEAR     23  21  93 W3        29.77R
THUNDER BAY    PTCLDY    25  23  93 W3        29.80R
SIOUX LOOKOUT  MOCLDY    27  23  86 S5        29.73R WCI  21
TORONTO        CLOUDY    37  34  87 SW10      29.98S
BIG TROUT LK   CLOUDY    32  30  93 SW5       29.71S
PICKLE LAKE    PTCLDY    25  23  93 SW6       29.73R WCI  18
DRYDEN         MOCLDY    30  25  80 SE8       29.71S WCI  23
KENORA         PTCLDY    28  23  80 S9        29.67F WCI  20
$$
                *** MANITOBA***

CITY           SKY/WX    TMP DP  RH WIND       PRES   REMARKS
BRANDON        PTCLDY    28  23  80 SW8       29.51F WCI  20
DAUPHIN        PTCLDY    39  28  65 SW15      29.39F
ISLAND LAKE    MOCLDY    28  27  93 SE14      29.60F WCI  17
PILOT MOUND      N/A     27  23  86 S12         N/A  WCI  16
THE PAS        PTCLDY    34  28  80 SE12      29.33F
THOMPSON       CLOUDY    32  30  93 E5        29.49
WINNIPEG       PTCLDY    28  23  80 S21       29.60F WCI  15
LYNN LAKE      CLOUDY    30  30 100 SE15      29.35F WCI  19
CHURCHILL      LGT SNOW   7   5  92 SE9       29.69F FOG     WCI  -7
GILLAM         FLURRIES  25  23  93 E7        29.62S WCI  17
$$
                ***SASKATCHEWAN***

CITY           SKY/WX    TMP DP  RH WIND       PRES   REMARKS
ESTEVAN        PTCLDY    30  27  86 SW14      29.50F WCI  20
KINDERSLEY     PTCLDY    36  30  80 S10       29.28F
LLOYDMINSTER   PTCLDY    36  30  80 SW10      29.19F
PRINCE ALBERT  MOCLDY    36  30  80 SW6       29.23S
REGINA         PTCLDY    36  30  80 S14       29.41F
YORKTON        CLEAR     36  30  80 SW12      29.37F   C1F1C2F2C3F3C4F4C5F5C6F6C7F7C8F8C9F9CaFaCbFbCcFcCdFdCe!



USA.gov is the U.S. government's official web portal to all federal, state and local government web resources and services.